Back to catalog

CZ-3C DEB

AliveGTO
NORAD 39353·DEBRIS·🇨🇳 China

Launched Oct 31, 2010 from Xichang Satellite Launch Center

Loading…

TLE

FreshSource: Space-Track

Epoch: Sep 14, 2026, 13:30 UTC

1 39353U 10057T   26257.56254655  .00000007  00000-0  35211-2 0  9997
2 39353  20.4013  46.8582 7145727 261.8481  25.8657  2.24423604105805

Track CZ-3C DEB in real time with AllMySat

Download on the App Store